STARLINK-34593, 64758

Orbit data source: Space-Track

STARLINK-34593, 64758 is a payload satellite owned by SpaceX/Seattle (US) in LEO that was launched on Tue, 08 Jul 2025 UTC via an FALCON 9 launch vehicle from the Air Force Eastern Test Range (AFETR). Payload-class satellites include a variety of spacecraft equipped with specific instruments for various scientific and technological missions. These include communications satellites like Starlink; space stations such as the ISS; scientific satellites like the Hubble; Earth observation satellites from companies like Planet Labs, Umbra, and HawkEye 360; GPS; miniature CubeSats for education and research; and military/defense satellites.

Loading next visibility...
Identifier
64758, 2025-147D
Orbit
LEO
Country
Flag of USUS
Related business
Manufacturer
SpaceX/Seattle
Mission
Operational Commercial Communications
Bus & Motor
STARLINK V2MO, Unknown motor
Mass
575 kg wet, ~530 kg dry
Launch date (UTC)
2025-07-08 (1 year ago)
Launch vehicle
FALCON 9
Launch site
Air Force Eastern Test Range (AFETR)
Object type
Payload
Rocket body
Debris
Shape & HBR
Box + 1 Pan, 17.7 m
Radar Cross Section
41.120 m², Large (>1 m²)

Expand to show TLE details & history
Last TLE update: 17 hours ago

TLE from 17 hours ago
0 STARLINK-34593
1 64758U 25147D   26254.98420191  .00008183  00000-0  25310-3 0  9996
2 64758  53.1575  93.2219 0001209  77.9046 282.2092 15.34395518 67337
Epoch: 2026-09-11T23:37Z
TLE epoch observation values (Epoch: 2026-09-11T23:37:15.045Z)
Latitude
Longitude
107.9095°
Altitude
463.443 km
Speed
7.636 km/s
True Right ascension
06h 12m 53s
True Declination
0° 00' 00"
Sunlit
Object was in daylight at epoch
Visualization orbit readout
Latitude
Unknown
Longitude
Unknown
Altitude
Unknown
Speed
Unknown
Apparent Right ascension
Unknown
Apparent Declination
Unknown
Sunlit
N/A
Visualization observer readout
Local Sidereal Time
09:26:32
Azimuth
Unknown
Elevation
Unknown
Doppler factor
Unknown
Orbital elements
Apogee altitude
463.801 km
Perigee altitude
462.147 km
Semi-major axis
6,841.111 km
Eccentricity
0.00012
Inclination
53.1575°
RAAN
93.2219°
Arg. of periapsis
77.9046°
True anomaly
282.19566°
Mean anomaly
282.2092°
Eccentric anomaly
282.20243°
Mean motion
3.83578 °/min
Orbital period
93.85 mins
BSTAR
0.0002531
Loading maneuver chart data...
Computing Atmospheric mass density...
Loading historical data...
Loading historical data...
Loading historical data...
Loading historical data...
Loading historical data...
Loading historical data...
Loading historical data...

Documentation

Showing up to 5 results
|